Theta_e
294 293 294 294 292 292 288 285 291 291 289 288 288 289 290 289 290 289 289 289 290 289 291 292 293 293 295 296 297 298 300 310 322 324 329 333 333 333 334 333 330 330 331 331
294 294 290 292 293 293 292 286 284 287 289 290 289 289 290 289 289 289 289 288 289 289 289 291 292 292 293 295 296 297 299 302 309 322 323 329 332 333 333 333 332 329 331 332
294 294 291 289 291 292 292 288 283 285 284 290 288 289 290 289 290 289 289 289 288 289 289 290 291 292 293 294 294 295 297 299 305 313 320 320 331 331 333 333 331 329 328 331
294 294 287 291 291 291 291 290 291 287 284 290 290 290 290 289 290 289 289 289 288 288 289 289 290 291 292 293 294 295 296 297 300 306 312 320 329 330 329 332 331 330 328 327
288 292 292 290 289 287 291 290 290 290 289 290 290 289 289 290 290 290 290 289 289 288 289 288 289 290 291 291 294 294 295 297 298 301 305 314 322 327 325 328 329 329 328 328
292 290 289 290 289 290 290 291 290 289 289 289 289 287 288 289 289 289 290 289 289 289 289 288 289 289 290 291 292 293 294 296 297 298 299 306 314 323 325 322 322 327 329 328
290 291 288 290 290 290 289 288 289 289 289 289 287 289 289 289 289 289 289 289 289 289 289 289 289 289 289 290 291 292 294 295 296 297 298 300 306 313 318 323 324 327 328 329
289 285 283 291 290 288 290 289 289 289 289 289 289 289 289 289 289 288 288 288 289 289 289 289 289 289 289 289 290 291 292 294 296 296 296 298 300 305 309 321 324 325 327 328
288 288 291 290 290 290 289 289 289 289 289 289 289 289 289 288 288 287 288 288 288 289 289 289 289 288 288 289 289 290 291 293 295 296 296 297 297 298 302 307 311 312 312 317
290 291 291 291 290 289 289 289 289 289 289 289 289 288 288 287 287 287 288 288 288 288 289 289 289 289 288 289 289 289 290 291 293 295 296 296 296 297 297 298 300 304 304 308
292 292 291 290 289 289 289 289 289 289 288 288 288 288 287 287 286 287 287 287 287 288 288 288 288 289 289 289 289 289 289 289 291 292 295 295 295 296 296 295 296 296 299 299
291 291 291 290 289 289 289 289 288 288 288 288 288 287 287 286 286 286 286 287 287 287 287 288 288 289 289 289 289 288 289 288 290 290 291 294 295 296 296 295 296 297 296 296
290 290 290 290 289 289 288 288 288 288 288 287 287 286 286 286 286 286 286 286 286 286 286 287 287 288 288 288 289 289 288 288 289 289 290 291 294 295 296 295 296 296 296 298
290 289 290 289 289 288 288 288 288 287 287 287 286 285 285 285 286 286 286 285 285 285 285 285 286 286 287 287 288 288 289 288 289 289 289 290 292 295 296 296 295 295 295 293
289 289 289 288 288 288 288 287 287 287 287 286 285 285 285 285 285 285 285 284 284 284 284 284 285 285 286 287 287 288 288 288 288 289 289 289 290 292 294 295 296 295 294 294
288 288 288 288 288 287 287 287 287 286 285 285 285 285 285 285 284 284 284 283 283 283 283 284 285 286 286 286 286 287 287 287 288 288 288 289 290 290 291 292 294 295 295 294
288 288 288 288 287 287 287 286 285 285 285 285 285 284 284 284 284 283 282 283 283 283 284 285 286 287 286 286 287 287 287 287 287 287 288 288 289 289 289 289 290 292 294 296
288 288 288 287 286 286 285 285 285 285 284 284 284 284 284 283 282 282 283 283 284 284 285 286 285 285 286 286 286 286 286 286 286 287 287 288 288 288 289 290 290 290 292 294
288 287 287 286 285 285 284 284 284 284 284 284 283 283 282 282 283 283 282 282 283 284 282 283 283 284 284 286 286 287 286 286 286 287 287 287 288 288 288 288 289 290 289 290
287 286 286 285 284 284 284 284 284 284 283 283 282 282 282 282 282 281 282 282 282 281 281 281 281 281 282 283 284 285 285 285 286 286 286 286 287 287 287 287 287 287 288 288
286 286 285 284 284 284 283 283 283 283 282 282 282 281 280 280 280 280 280 280 279 279 279 279 279 279 280 281 282 283 284 284 285 285 285 285 286 286 286 286 286 286 286 286
286 285 284 284 283 283 283 283 282 282 281 281 280 280 279 279 279 279 278 278 278 278 278 278 278 278 280 281 282 283 284 284 285 285 286 286 286 286 286 286 286 286 286 286
285 284 284 283 283 283 283 282 281 281 280 280 279 279 279 278 278 278 277 277 277 277 277 277 277 278 279 280 281 283 284 285 285 286 286 286 286 286 286 286 286 287 286 286
285 284 283 283 283 282 282 281 280 280 279 279 279 278 278 277 277 277 277 277 276 276 276 276 276 277 278 279 279 280 281 281 281 283 284 284 284 284 285 285 285 285 285 285
284 283 284 283 282 282 281 280 279 279 278 279 278 278 277 277 276 276 276 276 275 275 275 275 275 275 276 277 278 278 278 278 279 280 280 280 280 281 281 282 282 282 283 283
284 284 283 282 282 281 280 279 279 278 278 278 278 278 277 276 276 276 275 275 275 275 275 274 274 274 274 274 274 275 275 275 275 275 275 275 276 276 277 277 278 279 279 280
283 284 283 282 281 281 279 278 278 278 277 277 277 277 277 276 276 276 275 275 275 275 275 274 274 274 274 274 274 274 274 274 274 274 274 274 274 274 274 274 274 275 276 276
Wind_Speed
7 10 15 12 16 14 13 3 7 3 5 8 9 7 20 25 30 34 39 46 46 53 55 55 57 60 62 58 52 49 46 19 18 26 23 49 54 58 58 53 56 56 54 54
2 6 5 13 11 11 9 5 4 4 1 6 16 21 19 31 34 35 38 43 44 44 51 51 55 56 58 57 54 48 43 30 16 30 27 18 48 57 60 59 54 59 58 55
3 7 2 8 5 10 7 3 4 4 6 7 8 20 23 32 31 32 35 36 42 41 39 46 52 53 54 55 53 48 44 42 25 5 24 35 40 45 64 60 54 57 62 60
4 3 3 4 10 11 9 13 4 1 5 5 13 22 20 30 29 29 30 32 35 39 39 41 43 52 52 51 54 49 44 42 36 22 5 31 32 37 44 53 57 56 58 59
1 3 4 11 10 5 4 5 13 8 12 17 23 20 18 31 33 33 31 29 32 33 31 36 35 44 42 53 48 50 52 48 46 32 25 6 14 26 34 34 31 48 55 54
5 3 1 6 8 16 2 1 15 16 15 17 23 10 8 34 34 34 34 33 31 29 27 33 31 35 34 43 51 49 46 43 44 44 34 23 3 20 17 31 25 50 54 54
4 1 2 5 10 6 5 5 16 19 21 22 8 19 30 32 31 31 32 33 31 28 25 34 28 30 34 35 43 48 45 49 48 48 44 35 19 8 8 22 20 33 56 47
3 4 4 7 5 5 5 9 15 18 20 22 22 24 27 28 28 29 30 32 30 29 30 29 28 28 30 33 33 40 44 42 40 43 39 46 39 22 15 8 23 24 24 43
4 4 12 9 11 9 10 14 18 20 21 24 25 26 26 28 25 27 29 29 32 31 30 27 24 25 25 31 31 33 33 39 41 36 45 45 45 45 39 25 14 8 5 12
3 3 7 5 8 9 12 16 20 21 24 26 26 27 24 26 27 28 26 31 30 28 28 27 27 27 25 23 26 28 28 33 37 42 38 40 41 48 45 43 38 23 19 10
8 8 5 9 6 9 14 19 20 22 26 24 26 25 25 26 28 26 29 29 28 28 28 29 29 28 27 22 22 26 25 26 28 32 31 33 35 33 37 34 37 40 30 25
6 16 11 7 10 12 13 15 20 24 24 25 24 25 27 27 27 28 28 27 28 28 28 29 28 26 24 24 26 25 25 27 24 27 27 26 25 29 30 27 30 28 31 31
12 19 6 7 9 12 17 21 20 22 24 25 24 25 27 27 27 27 25 25 26 27 27 27 27 26 25 25 23 24 24 23 21 23 24 25 24 20 20 25 28 27 25 24
11 15 8 13 15 18 16 22 22 21 22 23 22 26 25 27 26 24 25 25 24 29 28 27 28 27 25 26 23 23 21 21 22 23 22 23 23 19 13 18 20 23 26 27
14 12 11 13 16 18 20 20 22 23 20 23 25 24 24 24 28 24 24 27 27 27 30 29 29 27 24 24 21 21 21 19 21 19 19 19 19 20 20 20 10 12 16 18
13 14 17 18 19 20 21 20 19 20 24 24 24 24 23 25 26 28 28 30 32 30 27 24 23 25 26 26 23 21 21 21 18 19 18 16 16 17 17 16 20 10 8 11
12 14 14 15 18 19 17 18 19 22 22 24 22 22 25 28 26 31 30 24 24 23 23 23 25 24 24 22 21 23 21 20 18 17 16 15 16 17 16 17 15 16 18 9
13 15 15 16 18 18 20 19 20 21 20 19 19 21 24 25 29 27 28 26 24 23 24 22 18 21 20 20 20 19 20 20 17 17 17 15 16 16 13 12 12 13 14 12
8 11 14 16 17 19 19 22 21 18 17 16 20 23 24 22 22 24 24 25 25 21 21 23 24 24 22 18 18 15 17 18 17 17 16 15 14 15 16 15 14 11 11 11
9 12 15 16 18 20 22 18 17 15 17 19 20 21 19 21 21 23 21 20 19 26 30 32 33 30 27 25 24 21 16 15 17 18 16 15 15 15 15 15 16 17 18 18
10 13 14 17 19 19 15 16 15 17 18 18 19 19 19 19 19 20 19 22 27 30 31 25 23 26 27 26 25 23 17 17 16 17 16 16 16 16 17 17 18 19 19 17
10 12 14 17 17 14 15 13 16 16 16 16 18 19 19 19 19 19 20 23 25 24 24 25 28 25 20 21 20 16 12 14 16 18 17 16 17 17 16 16 16 16 15 16
10 11 15 15 12 13 12 13 15 15 15 15 17 19 19 18 19 21 22 22 23 21 23 25 22 21 18 19 18 17 13 12 8 9 9 9 9 11 12 13 14 14 14 14
8 12 11 9 11 10 11 13 15 11 13 13 15 16 17 19 17 17 16 18 20 20 24 26 23 22 21 20 20 21 20 16 15 12 12 12 13 13 13 14 13 12 11 12
8 10 9 10 10 8 10 13 8 11 12 13 14 16 16 16 18 18 17 17 20 20 21 26 26 25 25 25 24 25 24 23 21 19 18 17 17 17 17 16 15 15 15 14
7 8 7 7 6 8 10 6 7 8 9 12 11 14 15 14 14 17 18 17 18 20 22 23 24 26 25 25 25 24 24 23 23 22 21 20 20 20 19 19 18 18 19 19
7 7 6 6 5 8 6 5 4 8 10 8 9 6 10 13 13 15 17 19 19 18 19 22 22 24 26 25 25 25 24 23 23 22 21 21 21 21 21 20 20 19 19 19
Wind_Direction
63 75 71 44 43 33 47 12 55 56 27 336 335 326 335 352 348 356 1 7 1 4 4 8 9 5 7 8 10 3 1 341 267 248 259 236 226 220 215 210 213 219 217 218
119 342 6 69 32 47 50 13 52 24 344 312 346 352 341 359 354 351 355 2 2 358 1 7 10 5 1 5 5 0 357 6 354 247 255 264 233 224 215 213 213 215 216 216
34 293 270 16 42 64 48 57 148 47 245 306 322 349 346 348 346 351 352 351 357 355 357 1 8 5 3 3 1 360 3 8 17 336 231 261 224 228 215 212 212 215 216 217
321 134 45 266 94 111 67 16 27 322 295 321 340 346 343 343 335 337 345 347 351 353 356 358 355 357 359 2 0 1 4 9 19 28 23 223 230 231 232 216 212 211 214 217
87 343 145 32 26 5 146 36 5 21 354 359 355 352 342 350 348 339 336 342 346 348 349 352 353 355 350 355 0 1 9 15 22 25 21 338 228 222 236 229 219 218 215 215
347 8 76 305 30 20 266 108 352 7 1 349 354 354 330 345 345 346 347 344 338 342 343 346 352 354 350 350 356 3 6 11 25 29 30 30 39 211 234 226 231 232 219 216
347 71 261 302 58 47 58 268 345 355 353 346 339 336 337 340 339 343 345 345 344 341 345 346 351 348 351 350 354 358 8 14 20 26 29 38 37 99 232 224 227 241 218 216
4 32 318 277 67 109 237 351 352 345 347 341 337 337 337 339 336 342 344 343 344 344 341 341 347 345 345 349 354 356 1 13 19 23 19 37 40 47 67 178 198 220 210 217
160 224 271 80 68 22 1 357 346 345 347 342 336 335 337 339 345 348 344 344 340 340 339 344 349 347 339 344 345 356 1 6 16 18 27 26 34 41 42 53 64 88 47 193
266 342 68 284 36 352 2 355 346 345 341 339 335 338 345 344 347 346 348 344 341 341 342 344 345 344 344 338 345 352 359 1 6 15 23 26 28 33 35 38 46 55 49 47
321 326 19 301 13 352 6 348 342 351 336 337 342 340 345 347 346 345 346 341 339 340 339 341 344 344 342 338 343 353 354 359 12 6 17 22 27 29 31 36 44 50 56 50
287 288 309 339 348 352 355 343 348 340 341 343 343 344 344 346 343 343 344 342 340 340 340 340 344 347 347 353 347 341 347 351 359 7 8 7 5 20 28 29 37 50 55 55
328 329 277 298 1 349 352 347 345 338 339 339 340 341 342 341 340 339 341 343 342 339 338 341 342 346 345 349 352 350 345 341 352 356 6 11 4 2 8 22 28 29 42 52
334 350 18 19 11 350 348 334 337 337 335 336 339 338 337 338 339 338 337 339 338 332 330 332 334 334 341 346 346 348 351 346 346 348 354 2 12 6 352 11 26 28 28 34
26 13 5 356 349 343 342 342 337 333 339 338 337 338 339 337 333 335 335 330 328 330 333 332 331 328 332 337 342 348 346 340 342 343 345 349 4 9 12 14 353 36 26 37
6 354 345 345 343 339 334 333 336 342 341 340 339 339 339 332 333 334 337 335 332 332 336 339 342 345 340 338 336 337 344 337 340 347 343 343 353 360 4 7 5 346 12 18
337 334 338 339 334 338 348 349 346 343 340 340 339 340 333 336 336 337 339 344 340 338 343 343 337 332 329 339 344 335 336 336 332 329 339 347 343 344 353 355 353 7 8 343
329 329 334 339 344 350 351 350 348 344 343 340 340 334 339 339 338 338 338 345 347 349 350 347 349 342 336 340 331 325 327 333 333 333 330 328 328 334 339 344 4 352 348 3
331 336 339 342 345 348 348 347 347 347 348 347 343 347 344 343 342 342 345 344 348 352 346 338 334 331 324 331 333 327 327 327 327 324 329 332 334 337 334 319 315 322 322 321
338 338 338 340 344 344 344 349 350 353 354 349 346 346 353 355 352 348 347 350 347 339 331 327 326 325 316 304 304 316 322 317 321 321 322 326 326 330 331 327 324 318 298 298
334 337 339 341 340 347 352 351 352 355 351 356 0 3 2 355 356 360 357 349 340 334 333 343 347 336 336 331 318 302 304 319 320 323 319 320 322 323 324 322 323 320 317 307
332 332 337 337 343 348 353 354 349 355 359 4 2 4 5 8 8 5 5 359 349 357 359 348 343 342 349 358 349 343 325 324 327 329 325 322 319 318 322 326 331 333 331 326
325 327 332 338 344 346 347 348 357 359 4 8 8 12 16 18 18 15 15 7 5 9 358 1 0 357 353 0 14 18 355 344 15 351 356 5 17 356 352 340 335 329 327 323
311 326 332 328 333 342 346 347 354 5 7 26 22 22 21 22 27 24 22 16 20 23 23 25 23 24 22 21 20 23 23 20 22 12 349 340 338 338 338 334 332 336 343 339
314 319 308 319 338 334 330 341 11 16 37 46 31 27 31 28 26 22 21 25 24 28 25 26 30 32 34 34 33 32 29 25 18 9 1 355 347 340 335 330 330 327 326 324
295 302 296 322 327 310 330 8 44 36 45 47 38 33 20 26 25 18 28 32 32 32 32 26 27 30 32 32 31 30 27 24 20 17 13 9 5 0 355 348 338 326 319 313
288 278 289 302 279 298 333 91 52 76 47 31 27 36 26 25 27 24 24 28 30 31 33 34 30 32 31 30 30 29 27 25 22 17 12 8 5 2 358 353 348 341 336 328